Wind_Speed
17 17 17 17 17 17 16 16 17 18 18 19 19 19 19 20 20 20 21 21 21 21 21 22 22 22 22 23 23 23 24 24 25 25 26 26 26 26 26 26 25 25 25
19 18 18 18 18 18 18 18 18 19 19 19 20 20 21 21 21 21 22 22 22 22 22 23 23 23 23 23 23 23 23 24 24 25 26 27 27 26 26 26 26 26 26
20 19 19 19 19 19 19 20 19 19 19 20 20 20 21 21 22 22 22 22 23 22 23 23 23 24 24 23 24 24 24 25 25 25 26 27 27 26 26 26 26 26 26
20 20 20 20 20 20 20 20 21 21 21 21 21 21 22 22 22 22 22 22 22 23 23 23 23 24 24 24 24 24 24 25 25 25 25 25 26 26 25 25 25 26 26
20 20 20 21 21 21 21 21 21 21 22 22 22 23 23 23 23 23 23 23 23 23 23 23 23 24 24 24 24 23 24 24 24 25 25 25 25 25 24 24 24 25 25
21 21 21 21 21 21 22 22 22 22 22 22 23 23 24 24 24 24 23 23 23 23 24 24 23 23 24 25 24 24 24 24 24 25 25 24 24 24 23 23 23 23 24
22 22 22 22 22 22 22 22 22 23 23 24 25 25 25 25 25 24 23 23 24 24 24 24 24 25 25 25 24 24 24 24 25 25 24 24 24 24 23 22 22 22 22
22 22 23 23 23 23 23 24 24 23 23 24 25 26 25 25 26 25 24 24 24 24 24 25 25 25 25 25 25 25 25 25 25 24 24 23 23 24 23 22 22 22 22
22 23 23 23 24 24 24 24 24 25 25 25 25 24 25 25 25 24 24 24 24 24 25 25 25 25 25 24 25 25 25 25 25 25 25 25 24 24 23 23 23 23 23
24 24 24 25 25 26 26 25 25 26 26 26 26 25 25 24 24 24 24 25 25 25 25 25 24 24 24 24 24 24 25 25 25 25 25 25 24 23 23 24 24 24 24
26 26 26 26 27 27 27 26 27 27 27 26 26 26 25 24 24 24 24 25 26 26 26 26 25 25 24 24 24 24 25 25 26 26 25 25 24 23 24 24 25 25 25
28 28 28 28 28 28 28 28 28 28 27 26 26 26 26 25 25 25 25 26 26 26 26 26 25 26 25 24 24 24 25 26 26 26 26 25 24 23 23 24 24 24 24
29 29 29 29 28 28 29 28 27 27 27 27 26 26 26 26 26 25 26 26 27 27 26 26 25 25 26 25 25 24 25 25 25 25 25 25 24 24 24 23 23 23 23
28 28 29 29 29 29 28 28 28 28 28 27 27 26 26 26 26 26 26 26 27 27 26 25 25 24 25 26 26 25 25 24 25 25 25 25 25 25 24 24 23 22 22
29 29 29 29 29 29 29 29 28 28 28 27 27 27 26 26 26 26 26 26 27 26 25 25 25 25 25 25 25 25 24 24 24 25 25 25 26 26 25 25 24 23 22
29 29 29 29 29 29 29 29 28 28 28 27 27 26 26 26 27 27 26 26 26 25 25 25 25 25 25 24 24 24 24 25 24 24 25 25 26 26 25 25 25 24 23
28 29 29 29 28 28 28 28 28 27 27 27 27 26 26 26 26 26 26 27 26 25 24 24 23 23 23 23 23 23 23 23 23 22 22 23 24 24 25 25 24 25 24
28 28 28 28 28 28 28 27 27 27 26 26 27 27 26 26 26 27 26 26 26 25 24 23 23 22 22 22 22 23 23 23 22 21 21 22 23 23 24 24 24 24 24
28 28 28 27 27 27 26 26 26 26 26 26 26 27 27 26 26 26 26 25 25 24 24 23 22 22 21 22 22 23 23 23 23 22 22 22 22 22 22 22 23 22 23
27 27 27 27 26 26 25 26 26 26 26 26 26 26 26 26 26 26 26 25 24 24 23 23 23 22 22 21 21 22 22 22 22 22 22 21 21 21 21 22 22 22 23
26 26 26 26 25 25 25 24 24 24 24 25 25 24 24 24 25 24 24 24 23 23 23 23 22 22 22 21 20 20 21 22 23 22 22 21 22 22 22 22 23 23 23
25 25 24 24 24 23 23 23 23 22 23 23 22 23 23 23 23 24 23 22 22 22 22 22 22 22 21 20 19 19 19 20 21 22 23 22 22 22 23 23 23 24 24
23 23 22 22 22 22 23 22 22 21 21 21 22 23 23 23 23 23 23 22 22 21 21 21 21 21 21 21 20 20 19 19 20 21 22 22 22 22 23 23 24 24 24
20 20 20 20 20 21 21 21 20 20 20 21 21 22 22 22 22 22 22 22 22 23 22 21 21 21 21 21 21 20 19 19 20 21 21 22 22 22 22 23 23 23 24
19 18 18 18 19 19 19 19 20 20 20 20 21 21 20 20 19 20 20 20 21 21 21 21 20 21 21 21 20 20 20 20 20 21 21 22 22 22 22 22 23 23 23
18 18 18 18 18 18 19 19 20 20 20 19 19 19 18 18 18 18 18 18 19 19 19 19 19 20 20 20 20 21 21 21 21 21 21 21 22 22 23 23 23 23 23
Wind_Direction
291 290 290 289 288 288 288 287 286 285 286 285 282 281 283 284 284 283 281 280 282 281 279 276 275 276 277 277 276 275 274 273 274 273 272 272 272 271 271 269 269 269 269
289 288 288 288 288 286 285 286 285 284 284 283 284 284 284 284 284 282 281 280 282 281 279 277 275 274 275 275 275 274 274 273 273 274 274 274 274 273 272 270 268 269 268
287 286 285 286 286 285 285 285 286 288 285 283 284 284 284 285 284 284 283 282 280 281 282 280 277 275 275 274 273 273 274 273 273 273 274 274 274 273 271 268 267 266 267
287 284 284 284 285 286 286 286 286 288 289 287 285 284 284 284 284 284 284 284 282 281 282 282 279 276 275 275 276 274 273 273 273 272 272 272 273 273 271 270 269 268 268
287 284 283 284 283 284 285 284 284 287 289 289 287 286 286 285 285 285 285 285 284 282 282 283 279 276 275 277 277 276 274 272 272 272 272 271 272 272 271 271 270 269 269
287 285 281 283 284 283 283 284 283 285 287 287 288 287 286 286 286 286 285 284 283 283 283 282 280 277 276 278 276 274 274 274 274 272 271 270 269 269 269 270 270 269 269
286 285 279 281 284 284 284 285 287 288 288 289 288 288 287 285 284 284 283 283 283 282 281 281 279 278 277 277 276 275 274 273 272 270 269 268 267 267 269 269 269 269 268
283 284 281 280 283 284 285 286 288 290 290 290 290 288 287 286 285 283 283 283 283 283 282 280 278 277 277 277 276 274 274 273 272 269 269 269 266 265 266 266 267 268 269
281 281 281 280 281 284 286 287 289 291 292 290 288 288 290 290 289 285 282 282 283 282 281 280 278 279 278 276 275 275 274 272 271 269 268 267 266 264 263 264 267 269 269
283 282 281 282 283 283 285 286 288 290 291 289 288 288 290 290 288 286 283 282 281 281 280 279 278 278 277 277 275 275 274 272 269 266 266 265 266 264 261 264 267 268 269
284 283 283 283 284 283 284 284 285 288 290 289 288 289 289 288 286 286 285 284 282 281 279 278 278 276 275 275 276 275 274 272 269 268 267 265 264 262 262 264 267 269 268
282 282 283 283 282 283 284 285 285 286 288 289 289 290 288 287 287 287 285 284 282 280 280 280 278 274 274 274 275 274 273 273 270 268 266 265 263 261 262 264 266 267 268
282 281 281 281 281 282 284 285 286 286 286 286 286 287 286 286 285 286 285 284 283 281 279 281 281 278 273 272 273 274 274 275 272 268 265 263 262 262 263 264 266 266 266
282 281 281 281 280 282 283 284 284 284 285 284 284 284 285 286 284 283 284 284 283 282 280 278 279 278 276 274 273 273 274 273 270 267 265 263 261 262 264 264 265 265 266
281 280 280 280 280 280 281 282 283 283 284 284 284 283 284 284 284 284 285 285 283 281 279 277 275 276 276 276 275 274 272 272 270 268 265 263 262 262 263 264 264 263 264
282 281 280 279 279 279 280 280 282 281 282 283 283 283 283 282 282 284 284 284 284 283 281 278 276 277 277 277 276 274 272 272 269 267 264 263 262 261 261 263 262 263 263
283 283 282 279 278 278 279 279 280 281 281 282 281 282 283 282 281 283 284 282 282 282 280 279 279 280 277 276 274 273 272 270 271 269 265 263 263 263 262 263 263 263 263
283 282 282 280 278 277 278 279 279 279 281 281 281 280 282 283 282 282 283 282 280 278 277 278 279 280 279 277 276 274 271 269 269 269 268 266 266 265 262 263 264 262 262
281 281 280 280 279 277 276 277 277 277 279 280 279 279 279 282 281 281 283 282 280 276 275 277 278 279 280 280 278 274 270 268 267 268 267 266 265 264 262 262 263 262 260
280 280 279 279 279 280 279 278 277 276 277 278 279 279 279 280 281 283 283 283 279 276 275 276 277 278 278 279 279 275 271 269 266 265 265 264 264 264 265 263 263 264 264
278 279 279 279 280 280 281 283 281 278 277 278 278 279 281 282 282 283 283 282 281 278 277 276 277 278 277 277 278 278 274 270 266 265 266 263 264 265 266 264 263 265 265
278 279 279 279 280 281 282 282 280 278 279 279 280 281 282 283 282 281 281 280 280 279 277 276 276 277 276 274 276 277 276 274 270 267 266 264 265 266 266 265 266 266 264
279 278 278 278 277 279 279 280 282 282 282 281 281 282 282 282 280 279 280 279 279 277 277 277 277 276 275 275 275 276 276 274 271 267 264 262 264 265 266 266 267 267 267
280 279 277 276 276 278 278 280 282 284 287 287 286 285 285 285 283 281 280 278 276 276 276 277 276 274 275 273 275 275 275 274 271 268 265 264 265 266 267 268 269 269 269
279 279 278 277 278 280 282 284 286 287 286 288 288 288 285 283 282 281 280 279 278 277 276 276 274 273 274 275 274 275 276 275 273 269 265 265 265 266 267 269 270 269 269
279 280 281 281 281 280 281 283 285 285 285 287 288 288 286 283 281 281 280 281 282 280 278 278 277 276 276 275 274 276 276 274 271 269 267 266 267 267 267 269 269 268 267
Height
5859 5857 5856 5855 5854 5853 5851 5850 5849 5847 5846 5845 5844 5842 5841 5840 5839 5838 5837 5836 5835 5835 5834 5833 5832 5832 5831 5830 5830 5829 5828 5828 5827 5827 5826 5826 5825 5825 5825 5825 5825 5826 5826
5854 5853 5851 5850 5849 5848 5847 5846 5844 5843 5842 5840 5838 5837 5836 5835 5833 5832 5831 5830 5830 5829 5828 5827 5826 5825 5825 5824 5823 5822 5822 5821 5821 5820 5819 5819 5818 5818 5818 5818 5818 5818 5819
5849 5848 5847 5845 5844 5843 5842 5840 5839 5837 5836 5834 5833 5832 5830 5829 5828 5826 5825 5824 5824 5823 5822 5821 5820 5819 5818 5817 5816 5816 5815 5814 5813 5813 5812 5811 5811 5811 5810 5811 5811 5811 5811
5844 5843 5841 5840 5839 5837 5836 5835 5833 5832 5830 5828 5827 5826 5824 5823 5821 5820 5819 5818 5817 5816 5815 5814 5813 5812 5812 5810 5810 5809 5808 5807 5806 5805 5805 5804 5804 5803 5803 5803 5804 5804 5804
5838 5837 5835 5834 5833 5832 5830 5829 5827 5826 5824 5822 5820 5819 5818 5817 5815 5814 5812 5812 5811 5810 5809 5807 5806 5806 5805 5804 5802 5802 5801 5800 5799 5798 5798 5797 5797 5797 5797 5796 5796 5797 5797
5832 5831 5829 5828 5827 5825 5824 5823 5821 5820 5818 5816 5815 5813 5811 5810 5809 5807 5806 5805 5804 5803 5802 5801 5800 5799 5798 5796 5795 5794 5793 5793 5792 5791 5791 5790 5790 5790 5789 5789 5790 5790 5791
5826 5824 5823 5822 5821 5819 5818 5816 5815 5813 5811 5810 5808 5807 5805 5803 5802 5801 5799 5798 5797 5796 5795 5794 5793 5792 5790 5789 5787 5786 5786 5785 5784 5784 5783 5783 5783 5783 5783 5783 5783 5783 5784
5820 5818 5817 5815 5814 5813 5811 5810 5808 5806 5804 5803 5801 5799 5797 5795 5794 5793 5792 5791 5790 5789 5788 5787 5785 5784 5783 5781 5780 5778 5778 5777 5776 5776 5776 5776 5776 5776 5776 5776 5776 5777 5777
5813 5812 5811 5809 5808 5806 5805 5803 5801 5799 5798 5796 5793 5792 5789 5788 5787 5786 5784 5783 5782 5781 5780 5779 5778 5777 5775 5774 5772 5771 5770 5769 5768 5768 5768 5768 5769 5769 5769 5770 5770 5770 5770
5806 5805 5803 5802 5800 5799 5798 5796 5794 5792 5790 5788 5787 5785 5783 5781 5780 5778 5777 5776 5775 5774 5773 5771 5770 5769 5767 5766 5764 5763 5762 5761 5760 5760 5760 5761 5761 5761 5762 5763 5763 5763 5763
5799 5797 5796 5794 5792 5791 5790 5788 5786 5785 5783 5781 5779 5777 5775 5774 5772 5771 5769 5768 5766 5765 5764 5763 5762 5761 5759 5758 5757 5756 5755 5754 5753 5752 5753 5753 5753 5754 5755 5756 5756 5756 5756
5790 5789 5787 5785 5784 5782 5781 5780 5778 5776 5775 5773 5771 5770 5768 5766 5765 5763 5761 5760 5758 5757 5756 5755 5754 5752 5751 5751 5750 5748 5747 5746 5745 5745 5745 5746 5746 5747 5748 5748 5748 5748 5749
5781 5780 5778 5777 5775 5774 5773 5771 5770 5768 5767 5765 5763 5762 5760 5759 5757 5755 5753 5752 5750 5748 5747 5746 5745 5744 5743 5743 5742 5741 5740 5739 5738 5738 5738 5738 5739 5740 5740 5741 5741 5741 5741
5772 5771 5769 5768 5767 5765 5764 5763 5761 5760 5758 5757 5755 5754 5752 5751 5749 5747 5745 5744 5742 5740 5739 5738 5737 5736 5735 5735 5734 5733 5732 5732 5731 5731 5731 5731 5732 5732 5733 5734 5734 5734 5735
5763 5762 5760 5759 5758 5756 5755 5754 5752 5751 5750 5748 5747 5746 5744 5743 5741 5740 5738 5736 5734 5732 5730 5730 5729 5728 5727 5727 5726 5725 5724 5723 5723 5723 5723 5724 5725 5725 5726 5726 5727 5727 5728
5754 5753 5751 5750 5748 5747 5746 5745 5743 5742 5741 5740 5739 5738 5736 5735 5734 5732 5730 5728 5726 5724 5723 5721 5721 5720 5720 5719 5718 5717 5717 5716 5716 5716 5716 5716 5717 5717 5718 5719 5720 5720 5721
5745 5744 5742 5740 5739 5738 5737 5736 5735 5734 5733 5732 5731 5729 5728 5727 5725 5724 5722 5720 5718 5716 5715 5714 5713 5712 5712 5711 5710 5710 5710 5709 5709 5708 5709 5709 5710 5711 5711 5712 5712 5713 5713
5736 5735 5733 5732 5731 5729 5728 5727 5726 5726 5725 5724 5723 5721 5720 5718 5717 5715 5713 5712 5710 5708 5707 5707 5706 5705 5704 5704 5703 5703 5703 5702 5702 5703 5703 5703 5703 5704 5704 5704 5705 5705 5706
5728 5726 5725 5723 5722 5721 5720 5719 5718 5717 5716 5715 5714 5713 5711 5710 5708 5707 5705 5703 5701 5700 5700 5699 5699 5698 5697 5697 5696 5696 5695 5696 5696 5696 5696 5697 5697 5697 5697 5698 5698 5698 5699
5719 5718 5716 5715 5714 5713 5711 5710 5709 5709 5708 5706 5705 5704 5703 5701 5700 5699 5697 5695 5694 5693 5692 5692 5691 5691 5690 5690 5689 5689 5688 5689 5689 5689 5690 5690 5690 5691 5691 5691 5691 5691 5692
5711 5710 5709 5708 5706 5705 5704 5702 5701 5700 5699 5698 5698 5696 5695 5693 5692 5691 5689 5688 5687 5686 5685 5684 5684 5683 5683 5683 5682 5682 5682 5681 5682 5682 5683 5683 5684 5684 5684 5684 5684 5684 5685
5703 5702 5701 5700 5699 5697 5696 5695 5694 5693 5692 5691 5690 5689 5688 5686 5685 5684 5682 5681 5680 5679 5678 5677 5677 5676 5676 5676 5676 5676 5675 5675 5675 5675 5676 5676 5677 5677 5677 5677 5677 5677 5677
5696 5695 5694 5693 5692 5691 5689 5688 5687 5686 5685 5684 5683 5681 5680 5679 5678 5676 5675 5675 5674 5672 5671 5671 5670 5670 5669 5669 5669 5669 5669 5668 5668 5668 5668 5669 5669 5670 5670 5670 5670 5670 5670
5689 5688 5687 5686 5685 5684 5683 5682 5681 5680 5678 5677 5676 5675 5673 5672 5670 5670 5669 5668 5667 5666 5665 5664 5664 5663 5663 5662 5662 5662 5662 5661 5661 5661 5661 5661 5662 5662 5662 5662 5662 5662 5662
5682 5681 5680 5679 5678 5678 5677 5676 5675 5674 5673 5671 5670 5668 5667 5665 5664 5663 5662 5662 5661 5659 5658 5658 5657 5657 5657 5656 5656 5656 5655 5655 5655 5654 5654 5654 5654 5654 5654 5654 5654 5654 5654
5676 5675 5674 5673 5672 5672 5671 5670 5669 5668 5666 5665 5664 5662 5661 5660 5659 5658 5657 5656 5654 5653 5652 5651 5651 5651 5650 5649 5649 5649 5649 5648 5647 5647 5647 5646 5647 5647 5647 5647 5647 5647 5646